Location: Unspecified
(47.9110°N, 14.3980°E)
Time: 04:27:30
(UTC+00:00)

Cosmos 2360 Rocket - Pass Details

Date: 06 August 2020
Orbit: 834 x 845 km, 71.0° (Epoch: 23 September)

Event Time Altitude Azimuth Distance (km) Brightness Sun altitude
Rises 22:43:38 0° 330° (NNW) 3,416 6.4 -25.5°
Reaches altitude 10° 22:46:06 10° 329° (NNW) 2,476 5.5 -25.5°
Maximum altitude 22:51:45 70° 247° (WSW) 899 2.2 -25.6°
Enters shadow 22:52:09 67° 217° (SW) 914 2.1 -25.6°
